[[{"header":{"parameterUnit":"m.s-1","parameterCategory":1,"la1":30.2991,"la2":30.254,"lo1":-89.0895,"lo2":-89.0444,"dy":0.0017,"dx":0.0017,"nx":28,"ny":28,"refTime":"2024-07-25T21:00:00:Z","depth":0,"parameterNumber":2,"parameterNumberName":"U-component_of_WINDS"},"data":[0,0,0,0,0,0,0,0,0,0,0,0,0,0,0,0,0,0,0,0,0,0,0,0,0,0,0,0,0,0,0,0,0,0,0,0,0,0,0,0,0,0,0,0,0,0,0,0,0,0,0,0,0,0,0,0,0,0,1.0169,1.0169,0,1.0163,1.0163,1.0162,1.0125,1.0124,1.0123,1.0123,1.0116,1.0117,1.0118,0,0,0,0,0,0,0,0,0,0,0,0,0,1.0149,1.015,1.0169,1.0169,1.0169,1.0163,1.0163,1.0162,1.0125,1.0124,1.0123,1.0122,1.0116,1.0117,1.0118,0,0,0,0,0,0,0,0,0,0,0,0,0,1.0152,1.015,1.0169,1.015,1.0148,1.0163,1.0163,1.0162,1.0126,1.0124,1.0123,1.0122,1.0116,1.0117,1.0118,1.0151,0,0,1.0121,1.0121,0,0,0,0,0,0,0,0,1.0152,1.0153,1.0152,1.0151,1.0149,1.0143,1.0153,1.0159,1.0126,1.0134,1.0123,1.0121,1.0126,1.0127,1.0128,1.0151,1.0151,1.0121,1.0122,1.0122,1.0122,0,0,0,0,0,0,0,1.0152,1.0153,1.0166,1.0153,1.015,1.0141,1.014,1.0154,1.0138,1.0133,1.013,1.013,1.0125,1.0127,1.0128,1.015,1.0121,1.0122,1.0123,1.0123,1.0199,1.02,0,0,0,0,0,0,1.0154,1.0153,1.0167,1.0166,1.0147,1.0143,1.0141,1.0146,1.0138,1.0135,1.0131,1.0128,1.0126,1.0127,1.0128,1.0164,1.0122,1.0123,1.0124,1.0198,1.0199,1.0201,0,0,0,0,0,0,1.0154,1.0156,1.0167,1.0159,1.016,1.0144,1.015,1.0147,1.0149,1.0136,1.0133,1.0136,1.0125,1.0126,1.0145,1.0164,1.0124,1.0124,1.0196,1.0198,1.02,1.024,0,0,0,0,0,0,1.0154,1.0156,1.0168,1.0159,1.016,1.0185,1.0152,1.0148,1.0151,1.0147,1.014,1.0138,1.0124,1.0144,1.0146,1.0164,1.0125,1.0194,1.0197,1.0199,1.0237,1.0243,1.0248,0,0,0,0,0,1.0153,1.018,1.0169,1.0171,1.0175,1.0186,1.0186,1.017,1.0153,1.0165,1.0156,1.0138,1.0162,1.0146,1.0149,1.0167,1.0193,1.0196,1.0199,1.0234,1.0242,1.0248,0,0,0,0,0,0,1.0191,1.0178,1.0166,1.0191,1.019,1.0179,1.0194,1.0179,1.0182,1.0179,1.0159,1.0158,1.0179,1.0176,1.0158,1.0199,1.0174,1.0178,1.02,1.0207,1.0213,1.0212,1.0126,0,0,0,0,0,1.0203,1.0213,1.0201,1.0224,1.0224,1.0209,1.0213,1.0201,1.0199,1.0198,1.0191,1.019,1.0197,1.0202,1.0208,1.0237,1.0234,1.0251,1.0257,1.0262,1.0264,1.0278,1.0285,1.0211,1.0211,1.0211,0,0,1.0226,1.0221,1.0228,1.0231,1.0229,1.0239,1.0209,1.0221,1.0229,1.02,1.0217,1.0213,1.021,1.0233,1.0244,1.0231,1.0285,1.0266,1.027,1.027,1.0282,1.0289,1.0295,1.0213,1.0213,1.0213,0,0,1.0274,1.0271,1.0289,1.0288,1.0284,1.0274,1.0279,1.0271,1.0267,1.0284,1.0262,1.0271,1.0284,1.0283,1.0284,1.0332,1.0314,1.0334,1.0364,1.0378,1.0383,1.0388,1.0404,1.041,1.0338,1.0338,1.0338,0,1.0303,1.0318,1.0301,1.0314,1.0316,1.0291,1.0309,1.0309,1.0308,1.0309,1.0296,1.0311,1.0308,1.033,1.0341,1.0344,1.0348,1.0334,1.0384,1.0389,1.0393,1.0408,1.0414,1.034,1.034,1.034,1.0339,0,1.0353,1.0364,1.0379,1.0378,1.0382,1.0398,1.0383,1.039,1.0377,1.0369,1.0387,1.0382,1.0386,1.0391,1.0379,1.0412,1.0404,1.0388,1.0362,1.0403,1.0416,1.0422,1.0343,1.0343,1.0342,1.0341,0,0,1.0423,1.0413,1.0419,1.0418,1.0413,1.042,1.0435,1.0439,1.0444,1.0445,1.0456,1.0468,1.0453,1.0454,1.0442,1.0455,1.0491,1.0436,1.0436,1.0445,1.0525,1.0536,1.0542,1.048,1.0482,1.0482,1.0524,0,1.0467,1.0491,1.0477,1.0503,1.0512,1.0489,1.0502,1.05,1.0493,1.05,1.0492,1.05,1.048,1.0481,1.0492,1.0484,1.0506,1.0481,1.049,1.049,1.0489,1.055,1.0561,1.0601,1.053,1.0531,1.0531,0,1.0521,1.0524,1.0551,1.0543,1.0546,1.0558,1.056,1.0567,1.0565,1.0559,1.0561,1.0546,1.056,1.0537,1.0555,1.0539,1.0542,1.0538,1.054,1.0538,1.0512,1.0548,1.0613,1.0619,1.054,1.0539,1.0538,0,1.0567,1.0578,1.0595,1.0595,1.0587,1.0596,1.0593,1.059,1.0593,1.0595,1.0597,1.0601,1.0603,1.0606,1.0593,1.0578,1.0613,1.0589,1.0608,1.0608,1.0614,1.0614,1.0679,1.062,1.062,1.062,1.062,0,1.0617,1.0634,1.0615,1.0625,1.0644,1.0627,1.0646,1.0641,1.0638,1.0647,1.0628,1.0637,1.062,1.0627,1.0617,1.0633,1.0635,1.063,1.0627,1.0631,1.0631,1.0631,1.0627,1.0621,1.0621,1.0621,1.062,0,1.067,1.0659,1.0675,1.0667,1.0665,1.0679,1.0672,1.0681,1.0673,1.0685,1.0687,1.0674,1.0682,1.067,1.0676,1.0669,1.0691,1.0685,1.0691,1.0689,1.0708,1.0705,1.0774,1.0781,1.0719,1.072,1.072,0,1.0701,1.0714,1.0707,1.0711,1.0709,1.0717,1.072,1.0705,1.0709,1.0707,1.0717,1.0723,1.0726,1.0739,1.0731,1.0735,1.0728,1.0752,1.0728,1.0731,1.0726,1.0724,1.0725,1.0756,1.0756,1.0757,1.0757,0,1.0757,1.0751,1.0756,1.0759,1.0763,1.0765,1.0765,1.077,1.0754,1.076,1.0767,1.077,1.0776,1.0782,1.0784,1.0782,1.0767,1.0765,1.0769,1.0772,1.0775,1.0772,1.0702,1.0763,1.0763,1.0762,1.0762,1.0762,1.0799,1.0809,1.0805,1.0811,1.081,1.0811,1.0819,1.0812,1.0818,1.0821,1.0812,1.0822,1.0819,1.0821,1.082,1.0827,1.0816,1.0823,1.0824,1.0826,1.0828,1.0776,1.0828,1.0828,1.0827,1.0827,1.0827,0,1.0852,1.0849,1.0855,1.0856,1.0861,1.0847,1.0847,1.0852,1.086,1.0859,1.0863,1.0871,1.0877,1.0869,1.0874,1.0881,1.0874,1.0882,1.088,1.088,1.0838,1.0833,1.0887,1.0887,1.0887,1.0887,1.0887,1.0887,1.088,1.0895,1.0889,1.0903,1.09,1.0908,1.0909,1.091,1.0909,1.0919,1.0923,1.0919,1.0915,1.0919,1.0923,1.0921,1.0923,1.0933,1.0928,1.0889,1.0883,1.0877,1.0872,1.0934,1.0934,1.0969,1.097,1.097]},{"header":{"parameterUnit":"m.s-1","parameterCategory":1,"la1":30.2991,"la2":30.254,"lo1":-89.0895,"lo2":-89.0444,"dy":0.0017,"dx":0.0017,"nx":28,"ny":28,"refTime":"2024-07-25T21:00:00:Z","depth":0,"parameterNumber":3,"parameterNumberName":"V-component_of_WINDS"},"data":[0,0,0,0,0,0,0,0,0,0,0,0,0,0,0,0,0,0,0,0,0,0,0,0,0,0,0,0,0,0,0,0,0,0,0,0,0,0,0,0,0,0,0,0,0,0,0,0,0,0,0,0,0,0,0,0,0,0,1.0998,1.1,0,1.1181,1.1183,1.1185,1.1206,1.1204,1.1202,1.1201,1.1382,1.1389,1.1395,0,0,0,0,0,0,0,0,0,0,0,0,0,1.0658,1.0664,1.0997,1.1,1.1002,1.1181,1.1183,1.1186,1.1206,1.1204,1.1202,1.12,1.138,1.1388,1.1396,0,0,0,0,0,0,0,0,0,0,0,0,0,1.082,1.0666,1.0997,1.1034,1.1039,1.118,1.1183,1.1186,1.1207,1.1204,1.1201,1.1199,1.1378,1.1387,1.1397,1.1512,0,0,1.1427,1.1431,0,0,0,0,0,0,0,0,1.0811,1.0832,1.1026,1.1032,1.1038,1.1168,1.113,1.1295,1.1208,1.1143,1.1201,1.1198,1.1313,1.1328,1.1368,1.152,1.1528,1.1427,1.1433,1.1438,1.144,0,0,0,0,0,0,0,1.0799,1.0824,1.107,1.1029,1.1036,1.1039,1.1059,1.1162,1.1241,1.1148,1.115,1.1172,1.1315,1.1358,1.1372,1.1531,1.1427,1.1436,1.1442,1.1446,1.1784,1.1787,0,0,0,0,0,0,1.0782,1.0815,1.1064,1.1075,1.0915,1.1048,1.107,1.1129,1.124,1.1254,1.1174,1.1172,1.1343,1.1361,1.1379,1.152,1.1438,1.1447,1.1452,1.1781,1.1785,1.1788,0,0,0,0,0,0,1.0775,1.0804,1.1057,1.0946,1.0978,1.1056,1.1122,1.1134,1.1177,1.1259,1.1273,1.1204,1.1342,1.1365,1.1479,1.1527,1.1451,1.146,1.1777,1.1782,1.1787,1.1803,0,0,0,0,0,0,1.0765,1.0802,1.0848,1.0947,1.0984,1.1156,1.1125,1.1139,1.1195,1.1194,1.1291,1.1304,1.1341,1.1464,1.1488,1.1539,1.1468,1.1773,1.178,1.1785,1.1799,1.1808,1.1816,0,0,0,0,0,1.0753,1.0844,1.085,1.088,1.1044,1.1159,1.118,1.1222,1.1199,1.1245,1.1297,1.1301,1.1517,1.1475,1.1503,1.1557,1.1771,1.1778,1.1785,1.1795,1.1806,1.1816,0,0,0,0,0,0,1.0747,1.0858,1.0866,1.0992,1.1066,1.1162,1.1221,1.1233,1.1313,1.1309,1.1356,1.1377,1.1489,1.1534,1.1485,1.1673,1.1641,1.1654,1.164,1.1651,1.1659,1.1646,1.1476,0,0,0,0,0,1.076,1.0846,1.0938,1.104,1.1077,1.1143,1.1194,1.1221,1.1298,1.1329,1.139,1.1463,1.1547,1.1601,1.1683,1.1805,1.1826,1.1856,1.1864,1.1871,1.1881,1.1948,1.1962,1.1811,1.1811,1.1811,0,0,1.0789,1.086,1.0911,1.1041,1.1101,1.1187,1.1169,1.1261,1.1324,1.1342,1.1454,1.15,1.1585,1.1703,1.1758,1.1744,1.1927,1.188,1.1884,1.1892,1.1956,1.197,1.1983,1.1816,1.1815,1.1814,0,0,1.0885,1.0948,1.1041,1.1101,1.1194,1.1236,1.1258,1.1353,1.1385,1.1498,1.1513,1.1588,1.1732,1.1792,1.1841,1.1957,1.1964,1.1982,1.2027,1.2091,1.2103,1.2114,1.2154,1.2169,1.1993,1.1993,1.1993,0,1.0908,1.1041,1.1086,1.1178,1.1233,1.1255,1.1347,1.1403,1.1517,1.1553,1.1537,1.1718,1.1776,1.1908,1.1936,1.1976,1.2,1.1972,1.2098,1.2109,1.212,1.2159,1.2175,1.1994,1.1994,1.1994,1.1994,0,1.1064,1.1156,1.1219,1.133,1.1392,1.1483,1.154,1.1598,1.1618,1.1661,1.1775,1.1846,1.1942,1.1975,1.1995,1.2109,1.2097,1.2089,1.2058,1.2135,1.2173,1.2188,1.1997,1.1996,1.1996,1.1995,0,0,1.1163,1.1297,1.132,1.137,1.1472,1.1543,1.1633,1.173,1.1778,1.1854,1.1931,1.2052,1.2044,1.21,1.2126,1.2182,1.2269,1.2167,1.2169,1.2183,1.2398,1.2404,1.2421,1.2274,1.2277,1.2279,1.239,0,1.127,1.1437,1.1479,1.1619,1.1703,1.1724,1.1803,1.1873,1.1916,1.1991,1.2037,1.2122,1.2106,1.214,1.2196,1.2247,1.2313,1.2239,1.2343,1.2347,1.2322,1.2441,1.2448,1.2549,1.2405,1.2408,1.241,0,1.1419,1.1501,1.165,1.1741,1.1777,1.1848,1.1939,1.2012,1.209,1.2117,1.2179,1.22,1.2292,1.2256,1.2384,1.2333,1.2377,1.2408,1.2413,1.2425,1.2383,1.2455,1.2583,1.2598,1.2434,1.2432,1.243,0,1.1475,1.1622,1.173,1.1773,1.1881,1.193,1.1977,1.2054,1.2109,1.2187,1.2222,1.2309,1.2357,1.2423,1.2465,1.2435,1.2589,1.2557,1.2612,1.2611,1.2644,1.2641,1.278,1.2673,1.2672,1.2672,1.2672,0,1.1591,1.1681,1.1757,1.1824,1.1925,1.1971,1.2069,1.2116,1.2183,1.2258,1.228,1.2348,1.2401,1.2475,1.2509,1.2609,1.263,1.2653,1.266,1.2651,1.2648,1.2681,1.2675,1.2676,1.2675,1.2674,1.2674,0,1.1671,1.1726,1.1845,1.1939,1.1964,1.2034,1.2113,1.2177,1.222,1.2313,1.2337,1.2404,1.2493,1.2543,1.2654,1.2676,1.2787,1.2791,1.2762,1.2765,1.2818,1.2812,1.2983,1.3007,1.2883,1.2884,1.2885,0,1.1742,1.1812,1.1913,1.1966,1.2014,1.2098,1.2154,1.2202,1.2259,1.2353,1.2405,1.2496,1.2572,1.2712,1.2769,1.2854,1.286,1.2914,1.2872,1.286,1.286,1.2855,1.2862,1.2921,1.2922,1.2923,1.2924,0,1.1861,1.1884,1.1966,1.2057,1.2124,1.2197,1.2269,1.231,1.2369,1.2431,1.2524,1.2583,1.2697,1.2786,1.2875,1.2921,1.2931,1.2936,1.2953,1.2945,1.2924,1.2936,1.2781,1.2932,1.2931,1.2931,1.293,1.293,1.1939,1.2002,1.2083,1.2172,1.2232,1.2299,1.2364,1.2415,1.2494,1.2592,1.2614,1.2712,1.2786,1.2907,1.2955,1.303,1.302,1.3045,1.3051,1.3057,1.3058,1.2912,1.3046,1.3046,1.3046,1.3046,1.3046,0,1.2059,1.2112,1.2194,1.2295,1.2365,1.2371,1.2451,1.2508,1.2594,1.2664,1.2738,1.2844,1.293,1.2993,1.3081,1.3128,1.3135,1.3149,1.3146,1.3156,1.3063,1.3039,1.3142,1.3142,1.3142,1.3142,1.3142,1.3142,1.2129,1.2236,1.2269,1.2405,1.2457,1.2554,1.2599,1.266,1.2716,1.2834,1.2906,1.2948,1.3014,1.3106,1.3185,1.3201,1.3232,1.3246,1.3262,1.3173,1.3163,1.3153,1.3131,1.3252,1.3252,1.3349,1.335,1.3351]}]]